Regional Weather Roundup
Issued by NWS

Home | Current Version | Previous Version | Text Only | Print | Product List | Glossary Off
Versions: 1 2 3 4 5 6 7 8 9 10 11 12 13 14 15 16 17 18 19 20 21 22 23 24 25 26 27 28 29 30 31 32 33 34 35 36 37 38 39 40 41 42 43 44 45 46 47 48 49 50

042
ASUS44 KLIX 262010
RWRLA
LOUISIANA WEATHER ROUNDUP
NATIONAL WEATHER SERVICE NEW ORLEANS LA
200 PM CST WED NOV 26 2014

NOTE: "FAIR" INDICATES FEW OR NO CLOUDS BELOW 12,000 FEET WITH NO
      SIGNIFICANT WEATHER AND/OR OBSTRUCTIONS TO VISIBILITY.
      SKY/WX - SKY CONDITION AND SIGNIFICANT WEATHER.
      TMP - AIR TEMPERATURE.    DP   - DEWPOINT TEMPERATURE.
      RH  - RELATIVE HUMIDITY.  PRES - PRESSURE.
      HX  - HEAT INDEX.         WCI  - WIND CHILL INDEX.

*  THESE STATIONS ARE NOT NWS OR FAA STATIONS AND ARE NOT UNDER
   NWS QUALITY CONTROL.

LAZ040-048-061>063-065-066-069-262100-
SOUTHEAST LOUISIANA

CITY           SKY/WX    TMP DP  RH WIND       PRES   REMARKS
N.O. AUDUBON     N/A     65  37  35 MISG        N/A
N.O. INTL ARPT MOSUNNY   69  34  27 SW16G25   30.19F
N.O. LAKEFRONT SUNNY     67  35  30 SW9       30.19F
N.O. DOWNTOWN* FAIR      66  34  30 S8G17     30.20S
SLIDELL        SUNNY     63  33  32 SW9       30.18F
BATON ROUGE    SUNNY     70  34  26 W20G26    30.15F
BOOTHVILLE     SUNNY     60  42  51 SW9       30.23F
BELLE CHASSE   SUNNY     68  28  22 SW13      30.19F
BOGALUSA*        N/A     67  32  27 SW8G17    30.17F
NEW ROADS*     FAIR      68  37  32 SW14      30.15F
GONZALES*      FAIR      69  37  30 W14G22    30.18S
HAMMOND*       SUNNY     70  34  26 S10G17    30.18F
HOUMA*         SUNNY     66  37  34 W10       30.21
PORT FOURCHON* CLEAR     64  39  39 W9        30.25F

$$

LAZ041-044-053-054-262100-
SOUTHWEST LOUISIANA

CITY           SKY/WX    TMP DP  RH WIND       PRES   REMARKS
LAKE CHARLES   SUNNY     69  41  36 SW14G23   30.17F
LAFAYETTE      SUNNY     69  38  32 SW15G25   30.17F
PATTERSON      SUNNY     68  39  34 W16G23    30.22S
SALT POINT       N/A     68  52  56 SW6       30.21F
NEW IBERIA     SUNNY     70  38  31 W14G26    30.19F
CHENAULT AIRPK NOT AVBL

$$

LAZ027-028-262100-
CENTRAL LOUISIANA

CITY           SKY/WX    TMP DP  RH WIND       PRES   REMARKS
FORT POLK      SUNNY     68  37  32 W14G25    30.12F
ALEXANDRIA INT SUNNY     68  39  34 SW18G30   30.10F
ALEXANDRIA     SUNNY     71  36  27 SW17G28   30.11S

$$

LAZ001-002-262100-
NORTHWEST LOUISIANA

CITY           SKY/WX    TMP DP  RH WIND       PRES   REMARKS
SHREVEPORT     MOSUNNY   67  31  26 W14G24    30.10R
BARKSDALE AFB  SUNNY     66  31  26 W12       30.10R
DTN SHREVEPORT SUNNY     66  31  27 W12G20    30.09S

$$

LAZ014-016-262100-
NORTHEAST LOUISIANA

CITY           SKY/WX    TMP DP  RH WIND       PRES   REMARKS
MONROE         MOSUNNY   69  34  27 W24G32    30.05F
TALLULAH       MOSUNNY   67  37  33 SW13G24   30.07S

$$




USA.gov is the U.S. government's official web portal to all federal, state and local government web resources and services.